Time,TemperatureF,DewpointF,PressureIn,WindDirection,WindDirectionDegrees,WindSpeedMPH,WindSpeedGustMPH,Humidity,HourlyPrecipIn,Conditions,Clouds,dailyrainin,SoftwareType,DateUTC
2013-11-18 00:00:00,49.9,49.0,29.34,SSW,202,1.4,6.0,96,0.00,,,0.12,Rainwise IP-100,2013-11-18 05:00:00,
2013-11-18 00:01:00,49.9,49.0,29.34,SW,225,4.0,6.0,96,0.00,,,0.00,Rainwise IP-100,2013-11-18 05:01:00,
2013-11-18 00:02:00,50.0,49.0,29.34,West,270,4.0,6.0,96,0.00,,,0.00,Rainwise IP-100,2013-11-18 05:02:00,
2013-11-18 00:07:00,50.2,49.0,29.33,SW,225,3.5,7.0,96,0.00,,,0.00,Rainwise IP-100,2013-11-18 05:07:00,
2013-11-18 00:12:00,50.6,50.0,29.33,WSW,247,3.3,10.0,96,0.00,,,0.00,Rainwise IP-100,2013-11-18 05:12:00,
2013-11-18 00:17:00,50.8,49.0,29.33,SSW,202,0.0,6.0,95,0.00,,,0.00,Rainwise IP-100,2013-11-18 05:17:00,
2013-11-18 00:22:00,50.6,49.0,29.32,South,180,5.1,5.1,95,0.00,,,0.00,Rainwise IP-100,2013-11-18 05:22:00,
2013-11-18 00:27:00,50.4,50.0,29.31,SSW,202,2.1,7.0,96,0.00,,,0.00,Rainwise IP-100,2013-11-18 05:27:00,
2013-11-18 00:32:00,50.5,50.0,29.31,SW,225,3.3,5.0,96,0.00,,,0.00,Rainwise IP-100,2013-11-18 05:32:00,
2013-11-18 00:38:00,50.6,50.0,29.29,SSW,202,5.6,6.0,96,0.00,,,0.01,Rainwise IP-100,2013-11-18 05:38:00,
2013-11-18 00:43:00,50.5,50.0,29.29,South,180,4.9,6.0,96,0.06,,,0.01,Rainwise IP-100,2013-11-18 05:43:00,
2013-11-18 00:48:00,50.6,50.0,29.28,WNW,292,3.0,8.0,96,0.06,,,0.01,Rainwise IP-100,2013-11-18 05:48:00,
2013-11-18 00:53:00,50.8,50.0,29.28,WSW,247,3.0,7.0,96,0.00,,,0.01,Rainwise IP-100,2013-11-18 05:53:00,
2013-11-18 00:58:00,50.9,50.0,29.27,WSW,247,3.3,7.0,96,0.00,,,0.01,Rainwise IP-100,2013-11-18 05:58:00,
2013-11-18 01:03:00,50.9,50.0,29.26,SW,225,2.6,9.0,96,0.00,,,0.01,Rainwise IP-100,2013-11-18 06:03:00,
2013-11-18 01:08:00,51.1,50.0,29.26,SW,225,6.3,9.0,96,0.00,,,0.01,Rainwise IP-100,2013-11-18 06:08:00,
2013-11-18 01:13:00,51.1,50.0,29.26,West,270,4.0,9.0,96,0.00,,,0.01,Rainwise IP-100,2013-11-18 06:13:00,
2013-11-18 01:18:00,51.3,50.0,29.26,WSW,247,5.4,12.0,96,0.00,,,0.01,Rainwise IP-100,2013-11-18 06:18:00,
2013-11-18 01:23:00,51.6,50.0,29.26,WSW,247,3.7,11.0,96,0.00,,,0.01,Rainwise IP-100,2013-11-18 06:23:00,
2013-11-18 01:28:00,51.7,50.0,29.26,SSW,202,3.3,5.0,96,0.00,,,0.01,Rainwise IP-100,2013-11-18 06:28:00,
2013-11-18 01:33:00,51.8,50.0,29.24,WSW,247,2.6,6.0,96,0.00,,,0.01,Rainwise IP-100,2013-11-18 06:33:00,
2013-11-18 01:38:00,51.8,50.0,29.24,WSW,247,3.5,4.0,96,0.00,,,0.01,Rainwise IP-100,2013-11-18 06:38:00,
2013-11-18 01:43:00,52.0,50.0,29.23,South,180,6.3,8.0,96,0.00,,,0.01,Rainwise IP-100,2013-11-18 06:43:00,
2013-11-18 01:48:00,52.2,50.0,29.23,SW,225,4.0,8.0,96,0.00,,,0.01,Rainwise IP-100,2013-11-18 06:48:00,
2013-11-18 01:54:00,52.5,51.0,29.23,SSW,202,5.4,8.0,95,0.00,,,0.01,Rainwise IP-100,2013-11-18 06:54:00,
2013-11-18 01:59:00,52.7,51.0,29.22,SSW,202,5.6,7.0,95,0.00,,,0.01,Rainwise IP-100,2013-11-18 06:59:00,
2013-11-18 02:04:00,52.8,51.0,29.22,SSE,157,0.0,12.0,95,0.00,,,0.01,Rainwise IP-100,2013-11-18 07:04:00,
2013-11-18 02:09:00,52.9,51.0,29.21,SE,135,4.7,6.0,95,0.00,,,0.01,Rainwise IP-100,2013-11-18 07:09:00,
2013-11-18 02:14:00,52.7,51.0,29.19,WSW,247,3.7,8.0,95,0.00,,,0.01,Rainwise IP-100,2013-11-18 07:14:00,
2013-11-18 02:19:00,52.8,51.0,29.20,SW,225,6.1,13.0,94,0.00,,,0.01,Rainwise IP-100,2013-11-18 07:19:00,
2013-11-18 02:24:00,53.0,51.0,29.19,SW,225,10.3,11.0,94,0.00,,,0.01,Rainwise IP-100,2013-11-18 07:24:00,
2013-11-18 02:29:00,53.1,51.0,29.18,SSE,157,4.2,12.0,94,0.00,,,0.01,Rainwise IP-100,2013-11-18 07:29:00,
2013-11-18 02:34:00,53.2,51.0,29.17,South,180,2.3,14.0,94,0.00,,,0.01,Rainwise IP-100,2013-11-18 07:34:00,
2013-11-18 02:39:00,53.2,51.0,29.17,SW,225,5.1,7.0,94,0.00,,,0.01,Rainwise IP-100,2013-11-18 07:39:00,
2013-11-18 02:44:00,53.3,51.0,29.16,WSW,247,3.0,6.0,94,0.00,,,0.01,Rainwise IP-100,2013-11-18 07:44:00,
2013-11-18 02:49:00,53.3,51.0,29.16,SW,225,4.0,9.0,94,0.00,,,0.01,Rainwise IP-100,2013-11-18 07:49:00,
2013-11-18 02:54:00,53.4,52.0,29.15,South,180,4.7,7.0,94,0.00,,,0.01,Rainwise IP-100,2013-11-18 07:54:00,
2013-11-18 02:59:00,53.6,52.0,29.15,SW,225,7.0,10.0,94,0.00,,,0.01,Rainwise IP-100,2013-11-18 07:59:00,
2013-11-18 03:04:00,53.9,52.0,29.13,South,180,7.0,11.0,94,0.00,,,0.01,Rainwise IP-100,2013-11-18 08:04:00,
2013-11-18 03:10:00,54.2,52.0,29.12,South,180,10.0,15.0,94,0.00,,,0.01,Rainwise IP-100,2013-11-18 08:10:00,
2013-11-18 03:15:00,54.4,53.0,29.13,WSW,247,7.5,14.0,93,0.00,,,0.01,Rainwise IP-100,2013-11-18 08:15:00,
2013-11-18 03:20:00,54.6,53.0,29.13,WSW,247,7.7,13.0,93,0.00,,,0.01,Rainwise IP-100,2013-11-18 08:20:00,
2013-11-18 03:25:00,54.9,53.0,29.12,SSE,157,4.4,13.0,93,0.00,,,0.01,Rainwise IP-100,2013-11-18 08:25:00,
2013-11-18 03:30:00,55.1,53.0,29.12,SSW,202,5.8,14.0,93,0.00,,,0.01,Rainwise IP-100,2013-11-18 08:30:00,
2013-11-18 03:35:00,55.1,53.0,29.11,SW,225,2.1,18.0,93,0.06,,,0.02,Rainwise IP-100,2013-11-18 08:35:00,
2013-11-18 03:40:00,55.1,53.0,29.11,SW,225,6.3,11.0,93,0.06,,,0.02,Rainwise IP-100,2013-11-18 08:40:00,
2013-11-18 03:45:00,55.1,53.0,29.10,SW,225,8.2,13.0,93,0.06,,,0.03,Rainwise IP-100,2013-11-18 08:45:00,
2013-11-18 03:50:00,55.0,53.0,29.10,SW,225,7.0,9.0,94,0.18,,,0.05,Rainwise IP-100,2013-11-18 08:50:00,
2013-11-18 03:55:00,54.9,53.0,29.09,SSW,202,1.9,12.0,94,0.18,,,0.06,Rainwise IP-100,2013-11-18 08:55:00,
2013-11-18 04:00:00,54.8,53.0,29.09,SSW,202,0.0,9.0,95,0.12,,,0.07,Rainwise IP-100,2013-11-18 09:00:00,
2013-11-18 04:05:00,54.7,53.0,29.09,WSW,247,2.1,3.0,95,0.18,,,0.09,Rainwise IP-100,2013-11-18 09:05:00,
2013-11-18 04:10:00,54.5,53.0,29.08,WSW,247,0.0,3.0,95,0.12,,,0.10,Rainwise IP-100,2013-11-18 09:10:00,
2013-11-18 04:15:00,54.6,53.0,29.08,WSW,247,4.0,5.0,96,0.12,,,0.11,Rainwise IP-100,2013-11-18 09:15:00,
2013-11-18 04:20:00,54.6,53.0,29.07,SW,225,5.4,6.0,96,0.18,,,0.12,Rainwise IP-100,2013-11-18 09:20:00,
2013-11-18 04:26:00,54.6,53.0,29.06,SSW,202,1.9,7.0,96,0.06,,,0.13,Rainwise IP-100,2013-11-18 09:26:00,
2013-11-18 04:31:00,54.6,53.0,29.05,SSW,202,4.4,7.0,96,0.12,,,0.14,Rainwise IP-100,2013-11-18 09:31:00,
2013-11-18 04:36:00,54.5,53.0,29.04,South,180,3.5,7.0,96,0.18,,,0.15,Rainwise IP-100,2013-11-18 09:36:00,
2013-11-18 04:41:00,54.4,53.0,29.04,WSW,247,3.5,6.0,96,0.12,,,0.16,Rainwise IP-100,2013-11-18 09:41:00,
2013-11-18 04:46:00,54.4,53.0,29.04,WSW,247,4.0,6.0,96,0.12,,,0.17,Rainwise IP-100,2013-11-18 09:46:00,
2013-11-18 04:51:00,54.5,53.0,29.03,SW,225,2.6,6.0,96,0.18,,,0.19,Rainwise IP-100,2013-11-18 09:51:00,
2013-11-18 04:56:00,54.5,53.0,29.03,SW,225,5.4,6.0,96,0.18,,,0.21,Rainwise IP-100,2013-11-18 09:56:00,
2013-11-18 05:01:00,54.5,54.0,29.03,SW,225,1.6,6.0,97,0.12,,,0.21,Rainwise IP-100,2013-11-18 10:01:00,
2013-11-18 05:06:00,54.5,54.0,29.02,SE,135,0.0,2.0,97,0.12,,,0.22,Rainwise IP-100,2013-11-18 10:06:00,
2013-11-18 05:11:00,54.4,54.0,29.01,SW,225,2.8,4.0,97,0.12,,,0.23,Rainwise IP-100,2013-11-18 10:11:00,
2013-11-18 05:16:00,54.4,54.0,29.01,WSW,247,3.7,5.0,97,0.12,,,0.24,Rainwise IP-100,2013-11-18 10:16:00,
2013-11-18 05:21:00,54.5,54.0,29.00,WSW,247,0.0,5.0,97,0.06,,,0.24,Rainwise IP-100,2013-11-18 10:21:00,
2013-11-18 05:26:00,54.5,54.0,29.00,SSE,157,0.0,2.0,97,0.06,,,0.25,Rainwise IP-100,2013-11-18 10:26:00,
2013-11-18 05:31:00,54.5,54.0,29.00,WSW,247,8.4,8.4,98,0.06,,,0.25,Rainwise IP-100,2013-11-18 10:31:00,
2013-11-18 05:36:00,54.7,54.0,29.05,SSW,202,0.0,14.0,98,0.42,,,0.34,Rainwise IP-100,2013-11-18 10:36:00,
2013-11-18 05:42:00,55.5,54.0,29.05,SW,225,10.0,25.0,96,1.02,,,0.43,Rainwise IP-100,2013-11-18 10:42:00,
2013-11-18 05:47:00,56.0,54.0,29.05,South,180,8.9,24.0,94,0.72,,,0.44,Rainwise IP-100,2013-11-18 10:47:00,
2013-11-18 05:52:00,56.2,53.0,29.05,SW,225,8.9,21.0,92,0.12,,,0.44,Rainwise IP-100,2013-11-18 10:52:00,
2013-11-18 05:57:00,56.3,53.0,29.05,WSW,247,3.3,10.0,91,0.00,,,0.44,Rainwise IP-100,2013-11-18 10:57:00,
2013-11-18 06:02:00,56.1,53.0,29.07,NNE,22,1.9,11.0,91,0.00,,,0.44,Rainwise IP-100,2013-11-18 11:02:00,
2013-11-18 06:07:00,55.9,53.0,29.06,SW,225,6.5,15.0,90,0.00,,,0.44,Rainwise IP-100,2013-11-18 11:07:00,
2013-11-18 06:12:00,56.0,53.0,29.06,SSW,202,3.3,13.0,89,0.00,,,0.44,Rainwise IP-100,2013-11-18 11:12:00,
2013-11-18 06:17:00,55.6,53.0,29.07,SW,225,3.7,10.0,89,0.00,,,0.44,Rainwise IP-100,2013-11-18 11:17:00,
2013-11-18 06:22:00,55.3,53.0,29.08,South,180,6.1,9.0,90,0.00,,,0.44,Rainwise IP-100,2013-11-18 11:22:00,
2013-11-18 06:27:00,55.1,53.0,29.08,SW,225,8.4,11.0,90,0.00,,,0.45,Rainwise IP-100,2013-11-18 11:27:00,
2013-11-18 06:32:00,55.1,52.0,29.08,SW,225,12.4,16.0,89,0.06,,,0.45,Rainwise IP-100,2013-11-18 11:32:00,
2013-11-18 06:37:00,54.8,51.0,29.06,SSW,202,6.5,18.0,88,0.06,,,0.45,Rainwise IP-100,2013-11-18 11:37:00,
2013-11-18 06:42:00,54.1,50.0,29.05,SSW,202,8.9,11.0,87,0.06,,,0.46,Rainwise IP-100,2013-11-18 11:42:00,
2013-11-18 06:47:00,53.3,49.0,29.04,SSW,202,0.0,9.0,88,0.06,,,0.46,Rainwise IP-100,2013-11-18 11:47:00,
2013-11-18 06:52:00,52.5,50.0,29.05,SW,225,7.0,7.0,90,0.00,,,0.46,Rainwise IP-100,2013-11-18 11:52:00,
2013-11-18 06:58:00,52.4,49.0,29.06,SW,225,3.5,12.0,90,0.00,,,0.46,Rainwise IP-100,2013-11-18 11:58:00,
2013-11-18 07:03:00,52.6,50.0,29.06,SSW,202,0.0,4.0,90,0.00,,,0.46,Rainwise IP-100,2013-11-18 12:03:00,
2013-11-18 07:08:00,52.3,49.0,29.05,SW,225,4.2,6.0,90,0.00,,,0.46,Rainwise IP-100,2013-11-18 12:08:00,
2013-11-18 07:13:00,52.0,49.0,29.04,SW,225,3.5,5.0,91,0.00,,,0.46,Rainwise IP-100,2013-11-18 12:13:00,
2013-11-18 07:18:00,51.6,50.0,29.05,SW,225,4.9,6.0,92,0.00,,,0.46,Rainwise IP-100,2013-11-18 12:18:00,
2013-11-18 07:23:00,51.7,50.0,29.06,SW,225,3.7,7.0,92,0.00,,,0.46,Rainwise IP-100,2013-11-18 12:23:00,
2013-11-18 07:28:00,52.0,50.0,29.06,SW,225,4.0,5.0,92,0.00,,,0.46,Rainwise IP-100,2013-11-18 12:28:00,
2013-11-18 07:33:00,52.0,50.0,29.05,WSW,247,3.5,5.0,92,0.00,,,0.46,Rainwise IP-100,2013-11-18 12:33:00,
2013-11-18 07:38:00,51.6,50.0,29.05,SW,225,3.5,4.0,92,0.00,,,0.46,Rainwise IP-100,2013-11-18 12:38:00,
2013-11-18 07:43:00,51.4,49.0,29.05,SW,225,6.1,6.1,93,0.00,,,0.46,Rainwise IP-100,2013-11-18 12:43:00,
2013-11-18 07:48:00,51.8,50.0,29.06,SSW,202,5.4,7.0,93,0.00,,,0.46,Rainwise IP-100,2013-11-18 12:48:00,
2013-11-18 07:53:00,51.9,50.0,29.06,SW,225,3.0,7.0,92,0.00,,,0.46,Rainwise IP-100,2013-11-18 12:53:00,
2013-11-18 07:58:00,51.7,50.0,29.06,SW,225,2.1,6.0,92,0.00,,,0.46,Rainwise IP-100,2013-11-18 12:58:00,
2013-11-18 08:03:00,51.5,50.0,29.05,SW,225,3.3,4.0,93,0.00,,,0.46,Rainwise IP-100,2013-11-18 13:03:00,
2013-11-18 08:08:00,51.4,49.0,29.05,South,180,7.9,7.9,93,0.00,,,0.46,Rainwise IP-100,2013-11-18 13:08:00,
2013-11-18 08:14:00,51.5,50.0,29.06,SW,225,4.7,12.0,92,0.00,,,0.46,Rainwise IP-100,2013-11-18 13:14:00,
2013-11-18 08:19:00,51.7,49.0,29.05,SSW,202,4.4,9.0,91,0.00,,,0.46,Rainwise IP-100,2013-11-18 13:19:00,
2013-11-18 08:24:00,51.8,49.0,29.06,SW,225,2.6,8.0,91,0.00,,,0.46,Rainwise IP-100,2013-11-18 13:24:00,
2013-11-18 08:29:00,51.9,49.0,29.05,SW,225,3.7,7.0,90,0.00,,,0.46,Rainwise IP-100,2013-11-18 13:29:00,
2013-11-18 08:34:00,52.2,49.0,29.05,West,270,0.0,5.0,90,0.00,,,0.46,Rainwise IP-100,2013-11-18 13:34:00,
2013-11-18 08:39:00,52.5,50.0,29.05,NW,315,0.0,0.0,91,0.00,,,0.46,Rainwise IP-100,2013-11-18 13:39:00,
2013-11-18 08:44:00,52.8,50.0,29.06,West,270,0.0,2.0,93,0.00,,,0.46,Rainwise IP-100,2013-11-18 13:44:00,
2013-11-18 08:49:00,53.0,50.0,29.06,SW,225,0.0,4.0,93,0.00,,,0.46,Rainwise IP-100,2013-11-18 13:49:00,
2013-11-18 08:54:00,52.8,50.0,29.06,South,180,2.8,5.0,93,0.00,,,0.46,Rainwise IP-100,2013-11-18 13:54:00,
2013-11-18 08:59:00,52.6,50.0,29.06,West,270,3.0,6.0,93,0.00,,,0.46,Rainwise IP-100,2013-11-18 13:59:00,
2013-11-18 09:04:00,53.0,50.0,29.07,SSE,157,2.3,9.0,90,0.00,,,0.46,Rainwise IP-100,2013-11-18 14:04:00,
2013-11-18 09:09:00,53.3,49.0,29.08,SSW,202,7.7,7.7,88,0.00,,,0.46,Rainwise IP-100,2013-11-18 14:09:00,
2013-11-18 09:14:00,53.5,49.0,29.08,West,270,6.3,15.0,86,0.00,,,0.46,Rainwise IP-100,2013-11-18 14:14:00,
2013-11-18 09:19:00,53.8,48.0,29.08,South,180,9.3,22.0,82,0.06,,,0.47,Rainwise IP-100,2013-11-18 14:19:00,
2013-11-18 09:24:00,53.7,47.0,29.07,SW,225,4.7,14.0,80,0.06,,,0.47,Rainwise IP-100,2013-11-18 14:24:00,
2013-11-18 09:30:00,53.7,47.0,29.08,South,180,6.5,11.0,79,0.00,,,0.47,Rainwise IP-100,2013-11-18 14:30:00,
2013-11-18 09:35:00,53.7,47.0,29.08,SW,225,1.4,9.0,79,0.00,,,0.47,Rainwise IP-100,2013-11-18 14:35:00,
2013-11-18 09:40:00,53.9,48.0,29.08,SSW,202,4.2,8.0,80,0.00,,,0.47,Rainwise IP-100,2013-11-18 14:40:00,
2013-11-18 09:45:00,54.3,49.0,29.08,South,180,5.6,5.6,83,0.00,,,0.47,Rainwise IP-100,2013-11-18 14:45:00,
2013-11-18 09:50:00,54.8,50.0,29.08,SW,225,4.4,7.0,83,0.00,,,0.47,Rainwise IP-100,2013-11-18 14:50:00,
2013-11-18 09:55:00,55.2,49.0,29.08,WSW,247,4.0,8.0,80,0.00,,,0.47,Rainwise IP-100,2013-11-18 14:55:00,
2013-11-18 10:00:00,55.8,49.0,29.08,SE,135,11.9,20.0,78,0.00,,,0.47,Rainwise IP-100,2013-11-18 15:00:00,
2013-11-18 10:05:00,56.4,48.0,29.08,SSW,202,6.8,19.0,74,0.00,,,0.47,Rainwise IP-100,2013-11-18 15:05:00,
2013-11-18 10:10:00,56.6,47.0,29.08,SSW,202,8.6,14.0,70,0.00,,,0.47,Rainwise IP-100,2013-11-18 15:10:00,
2013-11-18 10:15:00,56.3,47.0,29.09,ENE,67,0.0,12.0,72,0.00,,,0.47,Rainwise IP-100,2013-11-18 15:15:00,
2013-11-18 10:20:00,56.4,49.0,29.09,SSE,157,2.3,8.0,76,0.00,,,0.47,Rainwise IP-100,2013-11-18 15:20:00,
2013-11-18 10:25:00,56.8,48.0,29.08,South,180,0.0,11.0,74,0.00,,,0.47,Rainwise IP-100,2013-11-18 15:25:00,
2013-11-18 10:30:00,57.0,47.0,29.08,SW,225,8.4,10.0,71,0.00,,,0.47,Rainwise IP-100,2013-11-18 15:30:00,
2013-11-18 10:35:00,57.0,47.0,29.08,SSE,157,5.8,14.0,69,0.00,,,0.47,Rainwise IP-100,2013-11-18 15:35:00,
2013-11-18 10:40:00,56.9,46.0,29.07,South,180,1.9,12.0,67,0.00,,,0.47,Rainwise IP-100,2013-11-18 15:40:00,
2013-11-18 10:46:00,57.0,47.0,29.08,SSE,157,0.0,6.0,68,0.00,,,0.47,Rainwise IP-100,2013-11-18 15:46:00,
2013-11-18 10:51:00,57.3,46.0,29.07,SSW,202,6.5,14.0,66,0.00,,,0.47,Rainwise IP-100,2013-11-18 15:51:00,
2013-11-18 10:56:00,57.6,45.0,29.07,SSW,202,4.7,12.0,63,0.00,,,0.47,Rainwise IP-100,2013-11-18 15:56:00,
2013-11-18 11:01:00,57.6,46.0,29.08,SSE,157,8.4,9.0,64,0.00,,,0.47,Rainwise IP-100,2013-11-18 16:01:00,
2013-11-18 11:06:00,57.4,45.0,29.07,SW,225,1.9,23.0,63,0.00,,,0.47,Rainwise IP-100,2013-11-18 16:06:00,
2013-11-18 11:11:00,57.2,44.0,29.08,SW,225,6.8,18.0,61,0.00,,,0.47,Rainwise IP-100,2013-11-18 16:11:00,
2013-11-18 11:16:00,57.3,44.0,29.08,SSW,202,6.1,15.0,61,0.00,,,0.47,Rainwise IP-100,2013-11-18 16:16:00,
2013-11-18 11:21:00,57.4,43.0,29.07,South,180,6.8,15.0,59,0.00,,,0.47,Rainwise IP-100,2013-11-18 16:21:00,
2013-11-18 11:26:00,57.5,42.0,29.08,North,360,2.6,17.0,57,0.00,,,0.47,Rainwise IP-100,2013-11-18 16:26:00,
2013-11-18 11:31:00,57.6,42.0,29.07,WSW,247,7.7,15.0,56,0.00,,,0.47,Rainwise IP-100,2013-11-18 16:31:00,
2013-11-18 11:36:00,57.9,42.0,29.07,SW,225,12.8,15.0,55,0.00,,,0.47,Rainwise IP-100,2013-11-18 16:36:00,
2013-11-18 11:42:00,57.9,41.0,29.07,SW,225,4.2,15.0,53,0.00,,,0.47,Rainwise IP-100,2013-11-18 16:42:00,
2013-11-18 11:47:00,58.0,41.0,29.07,SSW,202,4.2,7.0,53,0.00,,,0.47,Rainwise IP-100,2013-11-18 16:47:00,
2013-11-18 11:52:00,58.0,41.0,29.07,SSW,202,7.5,20.0,53,0.00,,,0.47,Rainwise IP-100,2013-11-18 16:52:00,
2013-11-18 11:57:00,58.0,40.0,29.07,SSW,202,5.4,10.0,52,0.00,,,0.47,Rainwise IP-100,2013-11-18 16:57:00,
2013-11-18 12:02:00,58.3,40.0,29.06,WSW,247,4.9,14.0,52,0.00,,,0.47,Rainwise IP-100,2013-11-18 17:02:00,
2013-11-18 12:07:00,58.5,41.0,29.07,WSW,247,2.6,11.0,51,0.00,,,0.47,Rainwise IP-100,2013-11-18 17:07:00,
2013-11-18 12:12:00,58.6,41.0,29.07,WSW,247,1.6,11.0,51,0.00,,,0.47,Rainwise IP-100,2013-11-18 17:12:00,
2013-11-18 12:17:00,58.4,40.0,29.07,WSW,247,2.6,11.0,50,0.00,,,0.47,Rainwise IP-100,2013-11-18 17:17:00,
2013-11-18 12:22:00,58.2,40.0,29.07,South,180,14.9,22.0,50,0.00,,,0.47,Rainwise IP-100,2013-11-18 17:22:00,
2013-11-18 12:27:00,58.2,39.0,29.07,SSW,202,10.0,21.0,49,0.00,,,0.47,Rainwise IP-100,2013-11-18 17:27:00,
2013-11-18 12:32:00,58.2,39.0,29.06,SW,225,12.4,20.0,49,0.00,,,0.47,Rainwise IP-100,2013-11-18 17:32:00,
2013-11-18 12:37:00,58.4,39.0,29.06,South,180,11.0,21.0,49,0.00,,,0.47,Rainwise IP-100,2013-11-18 17:37:00,
2013-11-18 12:42:00,58.5,40.0,29.07,SW,225,16.6,18.0,49,0.00,,,0.47,Rainwise IP-100,2013-11-18 17:42:00,
2013-11-18 12:47:00,58.6,40.0,29.07,South,180,6.3,19.0,49,0.00,,,0.47,Rainwise IP-100,2013-11-18 17:47:00,
2013-11-18 12:52:00,58.9,40.0,29.07,SSW,202,6.1,14.0,49,0.00,,,0.47,Rainwise IP-100,2013-11-18 17:52:00,
2013-11-18 12:58:00,59.0,40.0,29.07,South,180,6.3,16.0,49,0.00,,,0.47,Rainwise IP-100,2013-11-18 17:58:00,
2013-11-18 13:03:00,59.0,39.0,29.07,NW,315,4.9,12.0,48,0.00,,,0.47,Rainwise IP-100,2013-11-18 18:03:00,
2013-11-18 13:08:00,59.2,39.0,29.07,SSE,157,4.2,12.0,48,0.00,,,0.47,Rainwise IP-100,2013-11-18 18:08:00,
2013-11-18 13:13:00,59.2,40.0,29.07,South,180,3.0,10.0,49,0.00,,,0.47,Rainwise IP-100,2013-11-18 18:13:00,
2013-11-18 13:18:00,59.1,40.0,29.08,South,180,0.0,8.0,49,0.00,,,0.47,Rainwise IP-100,2013-11-18 18:18:00,
2013-11-18 13:23:00,59.4,41.0,29.08,SSW,202,2.3,7.0,50,0.00,,,0.47,Rainwise IP-100,2013-11-18 18:23:00,
2013-11-18 13:28:00,59.7,41.0,29.08,WNW,292,1.4,5.0,50,0.00,,,0.47,Rainwise IP-100,2013-11-18 18:28:00,
2013-11-18 13:33:00,59.5,41.0,29.08,SSW,202,6.1,7.0,50,0.00,,,0.47,Rainwise IP-100,2013-11-18 18:33:00,
2013-11-18 13:38:00,59.4,40.0,29.08,WSW,247,1.9,9.0,49,0.00,,,0.47,Rainwise IP-100,2013-11-18 18:38:00,
2013-11-18 13:43:00,59.8,39.0,29.08,SE,135,0.0,6.0,48,0.00,,,0.47,Rainwise IP-100,2013-11-18 18:43:00,
2013-11-18 13:48:00,60.1,40.0,29.08,South,180,5.4,5.4,48,0.00,,,0.47,Rainwise IP-100,2013-11-18 18:48:00,
2013-11-18 13:53:00,60.0,39.0,29.07,SW,225,10.5,13.0,47,0.00,,,0.47,Rainwise IP-100,2013-11-18 18:53:00,
2013-11-18 13:58:00,59.9,38.0,29.08,South,180,3.0,19.0,45,0.00,,,0.47,Rainwise IP-100,2013-11-18 18:58:00,
2013-11-18 14:03:00,59.7,38.0,29.08,WSW,247,4.4,11.0,45,0.00,,,0.47,Rainwise IP-100,2013-11-18 19:03:00,
2013-11-18 14:08:00,59.6,38.0,29.08,South,180,4.0,7.0,45,0.00,,,0.47,Rainwise IP-100,2013-11-18 19:08:00,
2013-11-18 14:14:00,59.8,38.0,29.08,ENE,67,0.0,13.0,45,0.00,,,0.47,Rainwise IP-100,2013-11-18 19:14:00,
2013-11-18 14:19:00,59.7,38.0,29.08,SSW,202,4.4,9.0,45,0.00,,,0.47,Rainwise IP-100,2013-11-18 19:19:00,
2013-11-18 14:24:00,59.3,38.0,29.09,NE,45,3.7,11.0,45,0.00,,,0.47,Rainwise IP-100,2013-11-18 19:24:00,
2013-11-18 14:29:00,58.4,38.0,29.08,NNE,22,4.2,7.0,46,0.00,,,0.47,Rainwise IP-100,2013-11-18 19:29:00,
2013-11-18 14:34:00,57.7,38.0,29.09,WSW,247,4.4,7.0,47,0.00,,,0.47,Rainwise IP-100,2013-11-18 19:34:00,
2013-11-18 14:39:00,57.7,38.0,29.09,East,90,1.6,6.0,48,0.00,,,0.47,Rainwise IP-100,2013-11-18 19:39:00,
2013-11-18 14:44:00,57.7,38.0,29.09,South,180,0.0,5.0,48,0.00,,,0.47,Rainwise IP-100,2013-11-18 19:44:00,
2013-11-18 14:49:00,57.9,39.0,29.10,South,180,3.3,6.0,48,0.00,,,0.47,Rainwise IP-100,2013-11-18 19:49:00,
2013-11-18 14:54:00,57.9,38.0,29.10,South,180,6.3,6.3,47,0.00,,,0.47,Rainwise IP-100,2013-11-18 19:54:00,
2013-11-18 14:59:00,57.6,38.0,29.10,ENE,67,0.0,9.0,47,0.00,,,0.47,Rainwise IP-100,2013-11-18 19:59:00,
2013-11-18 15:04:00,56.6,37.0,29.11,NNW,337,3.0,5.0,47,0.00,,,0.47,Rainwise IP-100,2013-11-18 20:04:00,
2013-11-18 15:09:00,56.1,37.0,29.11,NE,45,0.0,7.0,48,0.00,,,0.47,Rainwise IP-100,2013-11-18 20:09:00,
2013-11-18 15:14:00,55.7,37.0,29.11,South,180,0.0,8.0,49,0.00,,,0.47,Rainwise IP-100,2013-11-18 20:14:00,
2013-11-18 15:19:00,55.2,37.0,29.11,NE,45,3.3,3.3,50,0.00,,,0.47,Rainwise IP-100,2013-11-18 20:19:00,
2013-11-18 15:24:00,54.9,37.0,29.11,NNE,22,1.2,8.0,50,0.00,,,0.47,Rainwise IP-100,2013-11-18 20:24:00,
2013-11-18 15:30:00,54.7,37.0,29.12,South,180,2.1,4.0,50,0.00,,,0.47,Rainwise IP-100,2013-11-18 20:30:00,
2013-11-18 15:35:00,54.5,37.0,29.12,SE,135,3.3,3.3,51,0.00,,,0.47,Rainwise IP-100,2013-11-18 20:35:00,
2013-11-18 15:40:00,54.5,37.0,29.13,SE,135,3.5,5.0,50,0.00,,,0.47,Rainwise IP-100,2013-11-18 20:40:00,
2013-11-18 15:45:00,54.3,36.0,29.13,ESE,112,3.3,5.0,50,0.00,,,0.47,Rainwise IP-100,2013-11-18 20:45:00,
2013-11-18 15:50:00,54.2,36.0,29.13,SSE,157,0.0,5.0,50,0.00,,,0.47,Rainwise IP-100,2013-11-18 20:50:00,
2013-11-18 15:55:00,53.9,36.0,29.13,WSW,247,2.1,3.0,51,0.00,,,0.47,Rainwise IP-100,2013-11-18 20:55:00,
2013-11-18 16:00:00,53.7,36.0,29.13,East,90,2.6,4.0,51,0.00,,,0.47,Rainwise IP-100,2013-11-18 21:00:00,
2013-11-18 16:05:00,53.6,36.0,29.13,SW,225,2.3,6.0,51,0.00,,,0.47,Rainwise IP-100,2013-11-18 21:05:00,
2013-11-18 16:10:00,53.4,36.0,29.13,SW,225,0.0,9.0,52,0.00,,,0.47,Rainwise IP-100,2013-11-18 21:10:00,
2013-11-18 16:15:00,53.3,36.0,29.13,WSW,247,0.0,4.0,52,0.00,,,0.47,Rainwise IP-100,2013-11-18 21:15:00,
2013-11-18 16:20:00,53.0,36.0,29.13,SW,225,0.0,4.0,52,0.00,,,0.47,Rainwise IP-100,2013-11-18 21:20:00,
2013-11-18 16:25:00,52.5,36.0,29.13,SW,225,0.0,1.0,53,0.00,,,0.47,Rainwise IP-100,2013-11-18 21:25:00,
2013-11-18 16:30:00,52.0,36.0,29.13,SW,225,0.0,0.0,53,0.00,,,0.47,Rainwise IP-100,2013-11-18 21:30:00,
2013-11-18 16:35:00,51.6,36.0,29.13,SW,225,0.0,0.0,54,0.00,,,0.47,Rainwise IP-100,2013-11-18 21:35:00,
2013-11-18 16:40:00,51.2,36.0,29.13,SW,225,0.0,1.0,55,0.00,,,0.47,Rainwise IP-100,2013-11-18 21:40:00,
2013-11-18 16:46:00,51.0,36.0,29.13,SW,225,0.0,1.0,55,0.00,,,0.47,Rainwise IP-100,2013-11-18 21:46:00,
2013-11-18 16:51:00,50.4,36.0,29.13,SW,225,0.0,1.0,58,0.00,,,0.47,Rainwise IP-100,2013-11-18 21:51:00,
2013-11-18 16:56:00,49.3,37.0,29.13,SW,225,0.0,0.0,62,0.00,,,0.47,Rainwise IP-100,2013-11-18 21:56:00,
2013-11-18 17:01:00,48.4,37.0,29.13,SW,225,0.0,0.0,64,0.00,,,0.47,Rainwise IP-100,2013-11-18 22:01:00,
2013-11-18 17:06:00,47.8,36.0,29.13,NNW,337,2.3,4.0,65,0.00,,,0.47,Rainwise IP-100,2013-11-18 22:06:00,
2013-11-18 17:11:00,47.3,36.0,29.13,NNW,337,1.9,3.0,67,0.00,,,0.47,Rainwise IP-100,2013-11-18 22:11:00,
2013-11-18 17:16:00,46.6,37.0,29.13,NNW,337,1.4,2.0,69,0.00,,,0.47,Rainwise IP-100,2013-11-18 22:16:00,
2013-11-18 17:21:00,45.9,37.0,29.13,NNW,337,1.6,1.6,71,0.00,,,0.47,Rainwise IP-100,2013-11-18 22:21:00,
2013-11-18 17:26:00,45.4,37.0,29.14,NNW,337,2.3,2.3,73,0.00,,,0.47,Rainwise IP-100,2013-11-18 22:26:00,
2013-11-18 17:31:00,45.3,37.0,29.15,ENE,67,4.2,7.0,73,0.00,,,0.47,Rainwise IP-100,2013-11-18 22:31:00,
2013-11-18 17:36:00,45.9,38.0,29.16,SW,225,7.5,11.0,73,0.06,,,0.48,Rainwise IP-100,2013-11-18 22:36:00,
2013-11-18 17:41:00,46.4,38.0,29.16,WSW,247,6.8,10.0,73,0.06,,,0.48,Rainwise IP-100,2013-11-18 22:41:00,
2013-11-18 17:46:00,46.1,39.0,29.15,SW,225,1.4,7.0,76,0.00,,,0.48,Rainwise IP-100,2013-11-18 22:46:00,
2013-11-18 17:51:00,45.7,39.0,29.15,SSW,202,1.6,7.0,79,0.00,,,0.48,Rainwise IP-100,2013-11-18 22:51:00,
2013-11-18 17:56:00,45.4,39.0,29.15,SW,225,0.0,5.0,81,0.00,,,0.48,Rainwise IP-100,2013-11-18 22:56:00,
2013-11-18 18:02:00,44.8,40.0,29.15,WSW,247,1.4,1.4,83,0.00,,,0.48,Rainwise IP-100,2013-11-18 23:02:00,
2013-11-18 18:07:00,44.5,40.0,29.15,WSW,247,1.2,3.0,84,0.00,,,0.48,Rainwise IP-100,2013-11-18 23:07:00,
2013-11-18 18:12:00,44.8,40.0,29.15,WSW,247,2.3,4.0,83,0.00,,,0.48,Rainwise IP-100,2013-11-18 23:12:00,
2013-11-18 18:17:00,44.5,40.0,29.16,WSW,247,3.0,3.0,84,0.00,,,0.48,Rainwise IP-100,2013-11-18 23:17:00,
2013-11-18 18:22:00,44.3,40.0,29.16,SW,225,2.3,4.0,85,0.00,,,0.48,Rainwise IP-100,2013-11-18 23:22:00,
2013-11-18 18:27:00,44.6,41.0,29.17,SW,225,1.9,4.0,85,0.00,,,0.48,Rainwise IP-100,2013-11-18 23:27:00,
2013-11-18 18:32:00,44.1,40.0,29.17,SSW,202,1.9,4.0,86,0.00,,,0.48,Rainwise IP-100,2013-11-18 23:32:00,
2013-11-18 18:37:00,43.7,41.0,29.16,SW,225,2.1,5.0,88,0.00,,,0.48,Rainwise IP-100,2013-11-18 23:37:00,
2013-11-18 18:42:00,43.9,41.0,29.17,West,270,0.0,2.0,88,0.00,,,0.48,Rainwise IP-100,2013-11-18 23:42:00,
2013-11-18 18:47:00,44.1,41.0,29.16,WNW,292,0.0,4.0,88,0.00,,,0.48,Rainwise IP-100,2013-11-18 23:47:00,
2013-11-18 18:52:00,43.9,41.0,29.16,WNW,292,0.0,0.0,88,0.00,,,0.48,Rainwise IP-100,2013-11-18 23:52:00,
2013-11-18 18:57:00,43.3,40.0,29.16,SW,225,2.6,3.0,90,0.00,,,0.48,Rainwise IP-100,2013-11-18 23:57:00,
2013-11-18 19:02:00,42.7,41.0,29.17,SW,225,3.3,3.3,92,0.00,,,0.48,Rainwise IP-100,2013-11-19 00:02:00,
2013-11-18 19:07:00,42.3,40.0,29.16,SSW,202,1.6,5.0,92,0.00,,,0.48,Rainwise IP-100,2013-11-19 00:07:00,
2013-11-18 19:12:00,42.2,40.0,29.17,SW,225,0.0,3.0,93,0.00,,,0.48,Rainwise IP-100,2013-11-19 00:12:00,
2013-11-18 19:18:00,42.1,40.0,29.17,SW,225,0.0,2.0,93,0.00,,,0.48,Rainwise IP-100,2013-11-19 00:18:00,
2013-11-18 19:23:00,41.9,40.0,29.17,WSW,247,1.9,2.0,93,0.00,,,0.48,Rainwise IP-100,2013-11-19 00:23:00,
2013-11-18 19:28:00,42.1,40.0,29.17,WSW,247,2.8,3.0,93,0.00,,,0.48,Rainwise IP-100,2013-11-19 00:28:00,
2013-11-18 19:33:00,42.2,40.0,29.17,WNW,292,1.4,2.0,92,0.00,,,0.48,Rainwise IP-100,2013-11-19 00:33:00,
2013-11-18 19:38:00,42.2,40.0,29.17,WSW,247,2.8,3.0,91,0.00,,,0.48,Rainwise IP-100,2013-11-19 00:38:00,
2013-11-18 19:43:00,41.9,40.0,29.17,SW,225,3.3,4.0,91,0.00,,,0.48,Rainwise IP-100,2013-11-19 00:43:00,
2013-11-18 19:48:00,41.3,39.0,29.18,SW,225,3.3,4.0,92,0.00,,,0.48,Rainwise IP-100,2013-11-19 00:48:00,
2013-11-18 19:53:00,41.5,40.0,29.18,SW,225,2.8,3.0,92,0.00,,,0.48,Rainwise IP-100,2013-11-19 00:53:00,
2013-11-18 19:58:00,41.8,40.0,29.18,SW,225,3.0,3.0,91,0.00,,,0.48,Rainwise IP-100,2013-11-19 00:58:00,
2013-11-18 20:03:00,41.6,40.0,29.19,SW,225,3.5,4.0,92,0.00,,,0.48,Rainwise IP-100,2013-11-19 01:03:00,
2013-11-18 20:08:00,41.3,39.0,29.18,NE,45,0.0,3.0,93,0.00,,,0.48,Rainwise IP-100,2013-11-19 01:08:00,
2013-11-18 20:13:00,41.2,39.0,29.18,SSW,202,1.9,6.0,92,0.00,,,0.48,Rainwise IP-100,2013-11-19 01:13:00,
2013-11-18 20:18:00,41.3,39.0,29.17,SW,225,4.4,4.4,92,0.00,,,0.48,Rainwise IP-100,2013-11-19 01:18:00,
2013-11-18 20:23:00,41.1,39.0,29.18,SW,225,2.3,6.0,93,0.00,,,0.48,Rainwise IP-100,2013-11-19 01:23:00,
2013-11-18 20:28:00,41.4,39.0,29.18,SW,225,0.0,5.0,92,0.00,,,0.48,Rainwise IP-100,2013-11-19 01:28:00,
2013-11-18 20:34:00,41.6,40.0,29.17,SW,225,0.0,3.0,91,0.00,,,0.48,Rainwise IP-100,2013-11-19 01:34:00,
2013-11-18 20:39:00,42.0,39.0,29.18,WSW,247,1.9,4.0,89,0.00,,,0.48,Rainwise IP-100,2013-11-19 01:39:00,
2013-11-18 20:44:00,43.0,39.0,29.18,WSW,247,4.2,4.2,86,0.00,,,0.48,Rainwise IP-100,2013-11-19 01:44:00,
2013-11-18 20:49:00,43.1,38.0,29.18,SW,225,3.7,4.0,83,0.00,,,0.48,Rainwise IP-100,2013-11-19 01:49:00,
2013-11-18 20:54:00,42.5,39.0,29.18,SW,225,1.9,4.0,84,0.00,,,0.48,Rainwise IP-100,2013-11-19 01:54:00,
2013-11-18 20:59:00,42.9,38.0,29.18,WSW,247,3.5,5.0,83,0.00,,,0.48,Rainwise IP-100,2013-11-19 01:59:00,
2013-11-18 21:04:00,43.1,38.0,29.18,SW,225,2.3,5.0,81,0.00,,,0.48,Rainwise IP-100,2013-11-19 02:04:00,
2013-11-18 21:09:00,42.5,38.0,29.18,SW,225,2.1,3.0,82,0.00,,,0.48,Rainwise IP-100,2013-11-19 02:09:00,
2013-11-18 21:14:00,42.0,37.0,29.18,WSW,247,1.2,4.0,83,0.00,,,0.48,Rainwise IP-100,2013-11-19 02:14:00,
2013-11-18 21:19:00,42.1,37.0,29.18,WSW,247,1.9,3.0,81,0.00,,,0.48,Rainwise IP-100,2013-11-19 02:19:00,
2013-11-18 21:24:00,42.4,36.0,29.18,WSW,247,1.2,3.0,78,0.00,,,0.48,Rainwise IP-100,2013-11-19 02:24:00,
2013-11-18 21:30:00,42.0,36.0,29.18,WSW,247,1.2,2.0,78,0.00,,,0.48,Rainwise IP-100,2013-11-19 02:30:00,
2013-11-18 21:35:00,41.7,36.0,29.18,WNW,292,0.0,2.0,78,0.00,,,0.48,Rainwise IP-100,2013-11-19 02:35:00,
2013-11-18 21:40:00,41.7,36.0,29.18,SW,225,2.1,3.0,78,0.00,,,0.48,Rainwise IP-100,2013-11-19 02:40:00,
2013-11-18 21:45:00,41.6,36.0,29.18,SSW,202,4.2,4.2,79,0.00,,,0.48,Rainwise IP-100,2013-11-19 02:45:00,
2013-11-18 21:50:00,42.3,36.0,29.18,SW,225,4.4,8.0,77,0.06,,,0.49,Rainwise IP-100,2013-11-19 02:50:00,
2013-11-18 21:55:00,43.8,36.0,29.18,WSW,247,3.3,7.0,72,0.06,,,0.49,Rainwise IP-100,2013-11-19 02:55:00,
2013-11-18 22:00:00,44.1,35.0,29.19,SSW,202,2.8,6.0,69,0.00,,,0.49,Rainwise IP-100,2013-11-19 03:00:00,
2013-11-18 22:05:00,44.0,35.0,29.19,SW,225,0.0,6.0,69,0.00,,,0.49,Rainwise IP-100,2013-11-19 03:05:00,
2013-11-18 22:10:00,43.9,35.0,29.19,South,180,3.7,3.7,70,0.00,,,0.49,Rainwise IP-100,2013-11-19 03:10:00,
2013-11-18 22:15:00,43.6,35.0,29.18,East,90,0.0,5.0,70,0.00,,,0.49,Rainwise IP-100,2013-11-19 03:15:00,
2013-11-18 22:20:00,43.8,35.0,29.19,SW,225,0.0,4.0,69,0.00,,,0.49,Rainwise IP-100,2013-11-19 03:20:00,
2013-11-18 22:26:00,44.1,33.0,29.19,SW,225,1.2,5.0,67,0.00,,,0.49,Rainwise IP-100,2013-11-19 03:26:00,
2013-11-18 22:31:00,44.1,33.0,29.19,WSW,247,6.8,7.0,66,0.00,,,0.49,Rainwise IP-100,2013-11-19 03:31:00,
2013-11-18 22:36:00,44.3,33.0,29.18,North,360,5.1,14.0,64,0.00,,,0.49,Rainwise IP-100,2013-11-19 03:36:00,
2013-11-18 22:41:00,44.6,33.0,29.19,WSW,247,1.6,11.0,63,0.00,,,0.49,Rainwise IP-100,2013-11-19 03:41:00,
2013-11-18 22:46:00,44.6,32.0,29.19,WSW,247,2.8,5.0,61,0.00,,,0.49,Rainwise IP-100,2013-11-19 03:46:00,
2013-11-18 22:51:00,44.5,32.0,29.19,SE,135,5.6,5.6,61,0.00,,,0.49,Rainwise IP-100,2013-11-19 03:51:00,
2013-11-18 22:56:00,44.3,32.0,29.20,West,270,2.3,8.0,61,0.00,,,0.49,Rainwise IP-100,2013-11-19 03:56:00,
2013-11-18 23:01:00,44.2,32.0,29.19,South,180,5.6,12.0,61,0.00,,,0.49,Rainwise IP-100,2013-11-19 04:01:00,
2013-11-18 23:06:00,44.3,31.0,29.19,SSW,202,6.3,13.0,60,0.00,,,0.49,Rainwise IP-100,2013-11-19 04:06:00,
2013-11-18 23:08:00,44.2,31.0,29.19,SE,135,3.0,13.0,60,0.00,,,0.49,Rainwise IP-100,2013-11-19 04:08:00,
2013-11-18 23:13:00,44.4,31.0,29.19,SE,135,4.7,15.0,58,0.00,,,0.49,Rainwise IP-100,2013-11-19 04:13:00,
2013-11-18 23:18:00,44.4,31.0,29.20,SSW,202,9.1,10.0,58,0.00,,,0.49,Rainwise IP-100,2013-11-19 04:18:00,
2013-11-18 23:23:00,44.3,31.0,29.19,SW,225,1.6,9.0,58,0.00,,,0.49,Rainwise IP-100,2013-11-19 04:23:00,
2013-11-18 23:28:00,44.0,31.0,29.20,WSW,247,2.8,6.0,58,0.00,,,0.49,Rainwise IP-100,2013-11-19 04:28:00,
2013-11-18 23:33:00,43.8,31.0,29.20,WSW,247,5.4,11.0,59,0.00,,,0.49,Rainwise IP-100,2013-11-19 04:33:00,
2013-11-18 23:38:00,43.8,31.0,29.20,WSW,247,5.8,16.0,58,0.00,,,0.49,Rainwise IP-100,2013-11-19 04:38:00,
2013-11-18 23:43:00,43.8,31.0,29.19,SSW,202,7.0,15.0,58,0.00,,,0.49,Rainwise IP-100,2013-11-19 04:43:00,
2013-11-18 23:48:00,43.8,31.0,29.20,South,180,2.8,16.0,57,0.00,,,0.49,Rainwise IP-100,2013-11-19 04:48:00,
2013-11-18 23:53:00,43.8,31.0,29.20,SSE,157,5.4,14.0,57,0.00,,,0.49,Rainwise IP-100,2013-11-19 04:53:00,
2013-11-18 23:58:00,43.7,31.0,29.20,WSW,247,7.5,13.0,57,0.00,,,0.49,Rainwise IP-100,2013-11-19 04:58:00,